QPF
0.05 0.04 0.02 0.01 0.02 0.01 0.01 0.01 0.01 0.01 0.01 0.01 0.01 0.00 0.01 0.01 0.01 0.01 0.03 0.06 0.08 0.06 0.07 0.09 0.09 0.08 0.06 0.05 0.06 0.06 0.07 0.08 0.08 0.08 0.07 0.05 0.03 0.03 0.03 0.03 0.03 0.03 0.03 0.02
0.04 0.03 0.02 0.01 0.01 0.02 0.02 0.01 0.01 0.01 0.00 0.01 0.01 0.01 0.01 0.01 0.01 0.02 0.02 0.05 0.08 0.08 0.08 0.08 0.09 0.10 0.08 0.05 0.05 0.05 0.05 0.06 0.07 0.07 0.07 0.06 0.05 0.04 0.04 0.04 0.04 0.03 0.03 0.03
0.03 0.03 0.01 0.01 0.01 0.02 0.02 0.01 0.01 0.01 0.01 0.02 0.01 0.01 0.01 0.01 0.01 0.02 0.02 0.04 0.07 0.08 0.08 0.08 0.08 0.08 0.08 0.06 0.04 0.04 0.04 0.04 0.05 0.07 0.08 0.07 0.06 0.04 0.04 0.04 0.06 0.04 0.03 0.03
0.03 0.02 0.01 0.01 0.01 0.01 0.02 0.01 0.01 0.02 0.03 0.03 0.02 0.01 0.01 0.01 0.01 0.02 0.02 0.03 0.05 0.07 0.08 0.08 0.08 0.08 0.08 0.07 0.06 0.05 0.04 0.04 0.04 0.05 0.07 0.08 0.07 0.05 0.04 0.04 0.05 0.06 0.05 0.04
0.04 0.02 0.01 0.01 0.01 0.01 0.02 0.02 0.02 0.03 0.03 0.03 0.02 0.01 0.01 0.02 0.01 0.01 0.02 0.03 0.03 0.04 0.06 0.07 0.07 0.07 0.07 0.08 0.07 0.05 0.06 0.05 0.03 0.04 0.05 0.06 0.08 0.08 0.06 0.05 0.05 0.06 0.05 0.04
0.02 0.02 0.01 0.00 0.01 0.01 0.02 0.02 0.03 0.03 0.04 0.04 0.01 0.01 0.01 0.02 0.02 0.02 0.02 0.03 0.03 0.03 0.05 0.06 0.06 0.07 0.06 0.07 0.07 0.06 0.06 0.07 0.05 0.03 0.03 0.05 0.06 0.08 0.07 0.06 0.06 0.05 0.04 0.03
0.02 0.01 0.01 0.01 0.01 0.01 0.02 0.03 0.04 0.05 0.05 0.03 0.01 0.01 0.01 0.01 0.01 0.01 0.02 0.02 0.02 0.03 0.04 0.06 0.06 0.06 0.06 0.06 0.08 0.07 0.05 0.06 0.05 0.04 0.03 0.03 0.04 0.06 0.06 0.05 0.05 0.04 0.04 0.03
0.02 0.01 0.01 0.01 0.01 0.01 0.02 0.02 0.02 0.03 0.04 0.02 0.01 0.01 0.01 0.01 0.01 0.02 0.02 0.01 0.02 0.02 0.04 0.05 0.06 0.06 0.06 0.06 0.06 0.07 0.05 0.05 0.06 0.05 0.03 0.03 0.04 0.04 0.04 0.04 0.04 0.04 0.04 0.03
0.01 0.01 0.00 0.00 0.01 0.02 0.02 0.02 0.02 0.03 0.03 0.02 0.01 0.01 0.02 0.01 0.01 0.02 0.02 0.01 0.02 0.02 0.03 0.04 0.05 0.05 0.06 0.06 0.05 0.06 0.06 0.04 0.04 0.04 0.03 0.03 0.03 0.04 0.04 0.03 0.03 0.04 0.03 0.02
0.00 0.00 0.00 0.00 0.01 0.01 0.02 0.02 0.03 0.05 0.05 0.03 0.01 0.01 0.02 0.02 0.01 0.01 0.01 0.01 0.01 0.02 0.03 0.04 0.05 0.06 0.06 0.06 0.06 0.05 0.06 0.05 0.04 0.03 0.03 0.03 0.03 0.04 0.04 0.04 0.03 0.03 0.02 0.02
0.00 0.00 0.00 0.00 0.01 0.01 0.02 0.01 0.02 0.03 0.03 0.02 0.02 0.02 0.02 0.02 0.01 0.01 0.01 0.01 0.01 0.03 0.03 0.05 0.06 0.08 0.08 0.07 0.08 0.07 0.06 0.06 0.05 0.04 0.03 0.03 0.02 0.03 0.03 0.03 0.03 0.03 0.02 0.02
0.00 0.00 0.00 0.00 0.00 0.00 0.01 0.02 0.02 0.03 0.02 0.01 0.02 0.04 0.03 0.02 0.01 0.01 0.01 0.01 0.02 0.03 0.04 0.05 0.07 0.08 0.10 0.09 0.09 0.09 0.07 0.06 0.06 0.05 0.04 0.03 0.03 0.02 0.02 0.02 0.02 0.02 0.02 0.01
0.00 0.00 0.00 0.00 0.00 0.00 0.01 0.02 0.03 0.03 0.01 0.01 0.02 0.04 0.04 0.02 0.01 0.01 0.01 0.01 0.02 0.03 0.04 0.05 0.06 0.06 0.09 0.10 0.09 0.09 0.08 0.07 0.06 0.06 0.06 0.05 0.04 0.03 0.02 0.02 0.02 0.02 0.01 0.01
0.00 0.00 0.00 0.00 0.00 0.00 0.00 0.01 0.02 0.02 0.02 0.01 0.02 0.04 0.03 0.02 0.02 0.01 0.01 0.02 0.02 0.03 0.04 0.04 0.04 0.05 0.05 0.08 0.08 0.07 0.07 0.06 0.05 0.05 0.05 0.05 0.05 0.04 0.04 0.03 0.02 0.02 0.02 0.02
0.00 0.00 0.00 0.00 0.00 0.00 0.00 0.01 0.01 0.01 0.01 0.02 0.02 0.02 0.02 0.02 0.02 0.01 0.01 0.01 0.02 0.03 0.04 0.05 0.03 0.03 0.03 0.04 0.06 0.06 0.05 0.04 0.03 0.03 0.03 0.03 0.03 0.04 0.04 0.04 0.03 0.02 0.02 0.02
0.00 0.00 0.00 0.00 0.00 0.00 0.00 0.00 0.00 0.01 0.01 0.01 0.01 0.02 0.02 0.02 0.02 0.01 0.01 0.01 0.01 0.02 0.02 0.04 0.04 0.03 0.03 0.03 0.03 0.04 0.04 0.03 0.02 0.02 0.02 0.02 0.02 0.02 0.03 0.03 0.03 0.03 0.03 0.02
0.00 0.00 0.00 0.00 0.00 0.00 0.00 0.00 0.00 0.00 0.01 0.01 0.01 0.01 0.01 0.01 0.01 0.01 0.01 0.01 0.01 0.02 0.01 0.02 0.03 0.03 0.03 0.03 0.02 0.02 0.02 0.02 0.02 0.01 0.01 0.01 0.01 0.01 0.02 0.02 0.02 0.02 0.02 0.02
0.00 0.00 0.00 0.00 0.00 0.00 0.00 0.00 0.00 0.00 0.00 0.00 0.00 0.00 0.01 0.01 0.01 0.01 0.01 0.01 0.01 0.01 0.01 0.01 0.01 0.03 0.03 0.04 0.03 0.02 0.02 0.02 0.01 0.01 0.01 0.01 0.01 0.01 0.02 0.02 0.02 0.02 0.02 0.01
0.00 0.00 0.00 0.00 0.00 0.00 0.00 0.00 0.00 0.00 0.00 0.00 0.00 0.00 0.00 0.00 0.00 0.01 0.01 0.01 0.00 0.00 0.01 0.01 0.01 0.01 0.02 0.03 0.04 0.03 0.02 0.02 0.02 0.01 0.01 0.01 0.01 0.01 0.02 0.02 0.02 0.02 0.02 0.02
0.00 0.00 0.01 0.01 0.00 0.00 0.00 0.00 0.00 0.00 0.00 0.00 0.00 0.00 0.00 0.00 0.00 0.00 0.00 0.00 0.00 0.00 0.00 0.01 0.01 0.01 0.01 0.02 0.03 0.03 0.03 0.02 0.02 0.02 0.02 0.02 0.02 0.02 0.02 0.02 0.02 0.02 0.02 0.02
0.00 0.01 0.01 0.01 0.00 0.00 0.00 0.00 0.00 0.00 0.00 0.00 0.00 0.00 0.00 0.00 0.00 0.00 0.00 0.00 0.00 0.00 0.00 0.00 0.00 0.01 0.01 0.01 0.01 0.02 0.03 0.03 0.02 0.02 0.03 0.02 0.02 0.02 0.02 0.02 0.02 0.02 0.02 0.02
0.00 0.00 0.00 0.00 0.00 0.00 0.00 0.00 0.00 0.00 0.00 0.00 0.00 0.00 0.00 0.00 0.00 0.00 0.00 0.00 0.00 0.00 0.00 0.00 0.00 0.01 0.01 0.01 0.01 0.01 0.02 0.02 0.02 0.02 0.02 0.02 0.02 0.02 0.01 0.01 0.01 0.01 0.01 0.01
0.00 0.00 0.00 0.00 0.00 0.00 0.00 0.00 0.00 0.00 0.00 0.00 0.00 0.00 0.00 0.00 0.00 0.00 0.00 0.00 0.00 0.00 0.00 0.00 0.00 0.00 0.01 0.01 0.01 0.01 0.01 0.01 0.01 0.01 0.02 0.01 0.01 0.01 0.01 0.01 0.01 0.01 0.00 0.00
0.00 0.00 0.00 0.00 0.00 0.00 0.00 0.00 0.00 0.00 0.00 0.00 0.00 0.00 0.00 0.00 0.00 0.00 0.00 0.00 0.00 0.00 0.00 0.00 0.00 0.00 0.00 0.01 0.01 0.01 0.01 0.01 0.01 0.01 0.01 0.01 0.01 0.01 0.00 0.00 0.00 0.00 0.00 0.00
0.00 0.00 0.00 0.00 0.00 0.00 0.00 0.00 0.00 0.00 0.00 0.00 0.00 0.00 0.00 0.00 0.00 0.00 0.00 0.00 0.00 0.00 0.00 0.00 0.00 0.00 0.00 0.00 0.01 0.00 0.00 0.00 0.00 0.00 0.00 0.00 0.00 0.00 0.00 0.00 0.00 0.00 0.00 0.00
0.00 0.00 0.00 0.00 0.00 0.00 0.00 0.00 0.00 0.00 0.00 0.00 0.00 0.00 0.00 0.00 0.00 0.00 0.00 0.00 0.00 0.00 0.00 0.00 0.00 0.00 0.00 0.00 0.00 0.00 0.00 0.00 0.00 0.00 0.00 0.00 0.00 0.00 0.00 0.00 0.00 0.00 0.00 0.00
MSLP
1025.84 1026.42 1027.06 1027.67 1028.21 1028.61 1028.83 1028.85 1028.69 1028.36 1027.91 1027.38 1026.81 1026.25 1025.71 1025.20 1024.72 1024.25 1023.76 1023.24 1022.65 1021.96 1021.17 1020.26 1019.25 1018.15 1017.00 1015.84 1014.72 1013.69 1012.81 1012.12 1011.64 1011.37 1011.32 1011.45 1011.74 1012.14 1012.63 1013.17 1013.75 1014.36 1014.99 1015.64
1026.90 1027.38 1027.87 1028.33 1028.71 1028.98 1029.12 1029.12 1028.96 1028.67 1028.27 1027.77 1027.22 1026.63 1026.05 1025.48 1024.94 1024.42 1023.91 1023.38 1022.81 1022.16 1021.39 1020.48 1019.45 1018.31 1017.10 1015.88 1014.73 1013.70 1012.88 1012.29 1011.94 1011.84 1011.95 1012.22 1012.61 1013.05 1013.53 1014.01 1014.50 1015.02 1015.57 1016.17
1028.00 1028.34 1028.66 1028.92 1029.13 1029.28 1029.34 1029.31 1029.18 1028.94 1028.58 1028.12 1027.57 1026.96 1026.32 1025.67 1025.07 1024.50 1023.98 1023.48 1022.95 1022.36 1021.65 1020.79 1019.77 1018.61 1017.36 1016.09 1014.90 1013.86 1013.07 1012.55 1012.32 1012.36 1012.62 1013.02 1013.50 1013.99 1014.47 1014.92 1015.35 1015.79 1016.27 1016.82
1029.16 1029.33 1029.44 1029.52 1029.56 1029.59 1029.59 1029.57 1029.48 1029.30 1028.99 1028.56 1028.01 1027.34 1026.62 1025.89 1025.19 1024.57 1024.03 1023.55 1023.10 1022.60 1021.99 1021.21 1020.24 1019.11 1017.85 1016.55 1015.32 1014.25 1013.46 1012.97 1012.81 1012.94 1013.29 1013.79 1014.34 1014.88 1015.38 1015.81 1016.21 1016.60 1017.04 1017.56
1030.35 1030.33 1030.25 1030.15 1030.06 1030.00 1029.99 1030.00 1029.98 1029.88 1029.64 1029.23 1028.64 1027.91 1027.07 1026.21 1025.40 1024.69 1024.12 1023.66 1023.27 1022.88 1022.40 1021.75 1020.88 1019.81 1018.58 1017.28 1016.02 1014.92 1014.09 1013.59 1013.43 1013.59 1013.98 1014.53 1015.13 1015.71 1016.22 1016.66 1017.05 1017.43 1017.86 1018.36
1031.52 1031.32 1031.07 1030.83 1030.66 1030.58 1030.60 1030.69 1030.77 1030.77 1030.59 1030.20 1029.57 1028.73 1027.75 1026.73 1025.76 1024.93 1024.28 1023.82 1023.49 1023.21 1022.87 1022.37 1021.65 1020.69 1019.54 1018.27 1017.00 1015.87 1014.99 1014.44 1014.24 1014.37 1014.75 1015.30 1015.91 1016.51 1017.04 1017.50 1017.90 1018.29 1018.72 1019.22
1032.57 1032.23 1031.87 1031.55 1031.35 1031.31 1031.42 1031.63 1031.85 1031.96 1031.86 1031.48 1030.79 1029.83 1028.68 1027.45 1026.28 1025.29 1024.53 1024.02 1023.73 1023.54 1023.35 1023.02 1022.48 1021.68 1020.65 1019.45 1018.22 1017.08 1016.16 1015.54 1015.27 1015.33 1015.65 1016.16 1016.75 1017.34 1017.89 1018.37 1018.79 1019.21 1019.65 1020.16
1033.44 1033.02 1032.59 1032.26 1032.10 1032.16 1032.40 1032.77 1033.13 1033.37 1033.34 1032.96 1032.21 1031.11 1029.77 1028.33 1026.94 1025.75 1024.85 1024.27 1023.97 1023.85 1023.79 1023.64 1023.29 1022.69 1021.82 1020.75 1019.60 1018.48 1017.54 1016.87 1016.52 1016.49 1016.74 1017.18 1017.72 1018.30 1018.84 1019.33 1019.78 1020.21 1020.66 1021.16
1034.08 1033.63 1033.21 1032.93 1032.86 1033.04 1033.43 1033.95 1034.47 1034.81 1034.84 1034.47 1033.64 1032.42 1030.90 1029.24 1027.64 1026.25 1025.19 1024.51 1024.18 1024.11 1024.16 1024.17 1024.03 1023.63 1022.96 1022.07 1021.04 1020.00 1019.08 1018.38 1017.97 1017.86 1018.02 1018.38 1018.87 1019.41 1019.94 1020.42 1020.88 1021.31 1021.74 1022.20
1034.50 1034.08 1033.72 1033.53 1033.57 1033.87 1034.39 1035.04 1035.66 1036.08 1036.14 1035.75 1034.87 1033.54 1031.87 1030.04 1028.26 1026.70 1025.49 1024.71 1024.34 1024.29 1024.42 1024.58 1024.62 1024.43 1023.99 1023.29 1022.43 1021.51 1020.66 1019.98 1019.54 1019.38 1019.47 1019.76 1020.18 1020.67 1021.16 1021.63 1022.06 1022.46 1022.85 1023.24
1034.76 1034.42 1034.15 1034.05 1034.18 1034.57 1035.16 1035.86 1036.51 1036.94 1037.00 1036.59 1035.66 1034.26 1032.51 1030.58 1028.68 1027.01 1025.71 1024.85 1024.43 1024.38 1024.58 1024.85 1025.04 1025.05 1024.82 1024.34 1023.67 1022.91 1022.17 1021.55 1021.13 1020.94 1020.98 1021.22 1021.58 1022.01 1022.46 1022.88 1023.27 1023.61 1023.93 1024.22
1034.96 1034.72 1034.55 1034.52 1034.69 1035.08 1035.65 1036.31 1036.90 1037.27 1037.27 1036.81 1035.85 1034.43 1032.67 1030.73 1028.82 1027.13 1025.79 1024.90 1024.46 1024.42 1024.64 1024.99 1025.30 1025.47 1025.42 1025.15 1024.68 1024.09 1023.49 1022.97 1022.61 1022.43 1022.45 1022.64 1022.95 1023.33 1023.72 1024.08 1024.40 1024.67 1024.90 1025.08
1035.21 1035.08 1034.98 1034.96 1035.10 1035.40 1035.84 1036.33 1036.75 1036.98 1036.88 1036.36 1035.40 1034.02 1032.33 1030.49 1028.67 1027.05 1025.76 1024.89 1024.46 1024.41 1024.64 1025.02 1025.41 1025.69 1025.80 1025.69 1025.41 1025.00 1024.55 1024.15 1023.86 1023.72 1023.74 1023.90 1024.17 1024.49 1024.83 1025.13 1025.38 1025.57 1025.70 1025.77
1035.61 1035.57 1035.48 1035.42 1035.42 1035.53 1035.72 1035.94 1036.11 1036.12 1035.86 1035.28 1034.34 1033.06 1031.53 1029.88 1028.25 1026.79 1025.63 1024.84 1024.44 1024.39 1024.62 1025.00 1025.41 1025.75 1025.95 1025.98 1025.85 1025.60 1025.31 1025.03 1024.82 1024.74 1024.77 1024.92 1025.15 1025.43 1025.71 1025.95 1026.14 1026.25 1026.30 1026.29
1036.20 1036.20 1036.07 1035.88 1035.67 1035.48 1035.34 1035.21 1035.05 1034.79 1034.37 1033.72 1032.83 1031.71 1030.40 1029.01 1027.65 1026.43 1025.46 1024.79 1024.45 1024.40 1024.59 1024.93 1025.32 1025.67 1025.92 1026.04 1026.03 1025.92 1025.75 1025.60 1025.48 1025.45 1025.51 1025.66 1025.86 1026.10 1026.33 1026.52 1026.66 1026.73 1026.73 1026.66
1036.96 1036.94 1036.71 1036.32 1035.83 1035.29 1034.75 1034.23 1033.72 1033.18 1032.59 1031.89 1031.08 1030.14 1029.11 1028.03 1026.98 1026.05 1025.30 1024.77 1024.49 1024.44 1024.58 1024.86 1025.19 1025.50 1025.76 1025.93 1026.00 1026.01 1025.96 1025.91 1025.88 1025.91 1025.99 1026.14 1026.32 1026.52 1026.71 1026.87 1026.98 1027.02 1027.01 1026.93
1037.78 1037.68 1037.30 1036.67 1035.87 1034.97 1034.03 1033.12 1032.26 1031.47 1030.73 1030.02 1029.31 1028.58 1027.83 1027.08 1026.36 1025.72 1025.19 1024.80 1024.58 1024.51 1024.60 1024.78 1025.03 1025.29 1025.53 1025.72 1025.86 1025.95 1026.01 1026.05 1026.10 1026.18 1026.29 1026.43 1026.59 1026.76 1026.92 1027.06 1027.16 1027.21 1027.21 1027.16
1038.52 1038.30 1037.73 1036.86 1035.75 1034.51 1033.22 1031.97 1030.84 1029.85 1029.01 1028.31 1027.72 1027.20 1026.73 1026.29 1025.87 1025.49 1025.15 1024.88 1024.69 1024.60 1024.61 1024.70 1024.86 1025.06 1025.27 1025.48 1025.67 1025.84 1025.99 1026.12 1026.25 1026.37 1026.50 1026.63 1026.78 1026.92 1027.06 1027.18 1027.28 1027.35 1027.39 1027.39
1039.01 1038.64 1037.88 1036.79 1035.43 1033.91 1032.36 1030.87 1029.55 1028.43 1027.56 1026.90 1026.45 1026.13 1025.90 1025.72 1025.55 1025.37 1025.17 1024.98 1024.81 1024.68 1024.61 1024.61 1024.69 1024.84 1025.03 1025.27 1025.52 1025.76 1026.00 1026.21 1026.40 1026.57 1026.71 1026.84 1026.96 1027.08 1027.20 1027.31 1027.42 1027.52 1027.61 1027.68
1039.12 1038.59 1037.67 1036.40 1034.87 1033.18 1031.47 1029.86 1028.45 1027.30 1026.45 1025.88 1025.55 1025.40 1025.37 1025.38 1025.38 1025.34 1025.23 1025.08 1024.89 1024.71 1024.58 1024.51 1024.53 1024.64 1024.84 1025.11 1025.42 1025.75 1026.07 1026.36 1026.61 1026.82 1026.98 1027.11 1027.21 1027.31 1027.41 1027.51 1027.63 1027.77 1027.90 1028.03
1038.74 1038.08 1037.05 1035.68 1034.06 1032.32 1030.58 1028.96 1027.56 1026.47 1025.69 1025.22 1025.02 1025.00 1025.11 1025.24 1025.34 1025.36 1025.29 1025.13 1024.92 1024.69 1024.50 1024.38 1024.37 1024.47 1024.69 1025.01 1025.39 1025.80 1026.21 1026.57 1026.88 1027.13 1027.31 1027.43 1027.53 1027.61 1027.70 1027.81 1027.94 1028.10 1028.27 1028.45
1037.86 1037.11 1036.01 1034.62 1033.02 1031.33 1029.67 1028.15 1026.87 1025.89 1025.23 1024.88 1024.78 1024.87 1025.04 1025.23 1025.37 1025.40 1025.31 1025.13 1024.87 1024.60 1024.37 1024.23 1024.21 1024.33 1024.59 1024.96 1025.41 1025.89 1026.37 1026.81 1027.17 1027.45 1027.66 1027.80 1027.90 1027.98 1028.07 1028.18 1028.33 1028.52 1028.73 1028.95
1036.52 1035.70 1034.60 1033.27 1031.78 1030.24 1028.76 1027.42 1026.33 1025.52 1025.01 1024.77 1024.76 1024.90 1025.11 1025.30 1025.41 1025.41 1025.29 1025.07 1024.78 1024.47 1024.22 1024.08 1024.07 1024.21 1024.51 1024.93 1025.44 1025.98 1026.52 1027.00 1027.41 1027.74 1027.97 1028.14 1028.27 1028.37 1028.49 1028.63 1028.81 1029.03 1029.26 1029.51
1034.81 1033.97 1032.93 1031.71 1030.41 1029.09 1027.84 1026.76 1025.89 1025.28 1024.93 1024.81 1024.86 1025.02 1025.22 1025.38 1025.44 1025.40 1025.23 1024.96 1024.65 1024.34 1024.09 1023.95 1023.96 1024.13 1024.45 1024.91 1025.44 1026.02 1026.59 1027.11 1027.56 1027.93 1028.21 1028.43 1028.60 1028.77 1028.93 1029.13 1029.36 1029.61 1029.88 1030.16
1032.86 1032.03 1031.08 1030.03 1028.94 1027.89 1026.93 1026.13 1025.52 1025.12 1024.92 1024.90 1025.00 1025.16 1025.33 1025.43 1025.45 1025.35 1025.14 1024.85 1024.53 1024.23 1023.99 1023.88 1023.91 1024.10 1024.43 1024.88 1025.42 1026.00 1026.58 1027.11 1027.59 1028.00 1028.34 1028.63 1028.88 1029.13 1029.39 1029.66 1029.96 1030.27 1030.58 1030.89
1030.81 1030.01 1029.16 1028.30 1027.47 1026.70 1026.04 1025.52 1025.16 1024.97 1024.92 1024.98 1025.12 1025.27 1025.40 1025.46 1025.42 1025.28 1025.06 1024.77 1024.46 1024.18 1023.98 1023.89 1023.94 1024.12 1024.45 1024.87 1025.38 1025.93 1026.49 1027.02 1027.51 1027.96 1028.37 1028.75 1029.11 1029.47 1029.84 1030.22 1030.61 1031.00 1031.36 1031.69
Thickness
5539 5535 5528 5527 5529 5532 5528 5525 5522 5521 5521 5521 5523 5525 5531 5534 5533 5534 5535 5536 5539 5542 5544 5543 5543 5544 5543 5543 5543 5544 5544 5543 5542 5540 5537 5535 5533 5532 5532 5531 5530 5529 5527 5526
5532 5527 5525 5527 5529 5529 5526 5522 5518 5517 5518 5517 5516 5520 5527 5530 5531 5533 5533 5533 5534 5536 5537 5537 5537 5537 5536 5536 5536 5537 5537 5536 5534 5532 5530 5527 5525 5523 5523 5522 5521 5520 5518 5516
5528 5522 5524 5527 5525 5526 5522 5519 5517 5515 5512 5513 5512 5522 5527 5532 5531 5531 5531 5531 5532 5532 5532 5531 5531 5531 5530 5530 5529 5531 5530 5529 5527 5525 5522 5519 5517 5515 5514 5513 5512 5511 5509 5507
5517 5518 5523 5523 5520 5522 5520 5516 5514 5512 5510 5506 5509 5512 5528 5528 5527 5530 5529 5527 5527 5527 5527 5526 5525 5525 5524 5524 5523 5524 5524 5523 5520 5518 5515 5513 5510 5507 5505 5504 5502 5501 5499 5497
5512 5513 5518 5519 5516 5516 5512 5510 5509 5508 5507 5503 5502 5505 5522 5522 5526 5531 5529 5527 5525 5523 5522 5522 5521 5521 5520 5519 5518 5517 5517 5516 5514 5512 5509 5506 5503 5500 5497 5495 5493 5492 5490 5488
5507 5508 5509 5510 5510 5511 5508 5507 5505 5500 5499 5501 5505 5500 5515 5516 5527 5532 5531 5528 5524 5521 5520 5519 5517 5516 5515 5513 5512 5511 5510 5510 5508 5505 5503 5499 5496 5493 5490 5487 5485 5483 5481 5479
5509 5508 5506 5506 5510 5510 5508 5504 5495 5496 5484 5494 5499 5498 5513 5527 5526 5528 5529 5527 5522 5518 5516 5514 5513 5511 5510 5509 5507 5505 5504 5503 5501 5499 5496 5492 5489 5486 5483 5480 5477 5474 5472 5469
5508 5507 5503 5502 5504 5504 5505 5505 5497 5500 5495 5491 5492 5496 5520 5525 5522 5521 5521 5521 5518 5515 5513 5511 5509 5507 5506 5504 5502 5500 5498 5497 5495 5492 5489 5486 5482 5478 5475 5472 5469 5466 5463 5461
5503 5503 5499 5500 5500 5502 5501 5495 5495 5482 5473 5480 5491 5498 5515 5521 5520 5519 5518 5517 5516 5513 5511 5509 5506 5503 5501 5499 5497 5495 5493 5491 5489 5486 5483 5479 5476 5472 5468 5464 5461 5458 5455 5452
5496 5492 5495 5495 5500 5497 5496 5490 5482 5480 5489 5495 5497 5501 5513 5524 5522 5520 5517 5515 5513 5511 5508 5505 5502 5500 5497 5494 5492 5490 5488 5486 5483 5480 5477 5473 5469 5465 5461 5457 5454 5451 5448 5445
5491 5489 5489 5491 5489 5490 5488 5486 5480 5472 5475 5487 5495 5512 5517 5520 5520 5516 5515 5513 5510 5507 5505 5502 5498 5495 5493 5490 5487 5485 5483 5480 5477 5474 5471 5466 5462 5458 5454 5451 5447 5444 5441 5438
5487 5482 5479 5484 5483 5480 5482 5483 5478 5485 5477 5471 5484 5507 5520 5513 5512 5511 5511 5510 5507 5504 5501 5498 5494 5491 5488 5485 5483 5480 5477 5474 5471 5468 5464 5460 5456 5452 5448 5444 5440 5437 5433 5430
5485 5481 5483 5494 5485 5475 5474 5475 5472 5469 5465 5458 5474 5508 5515 5508 5509 5509 5508 5506 5503 5501 5498 5493 5489 5486 5484 5481 5478 5475 5472 5469 5466 5462 5458 5454 5449 5445 5442 5439 5434 5430 5426 5422
5484 5476 5485 5500 5499 5477 5472 5472 5468 5469 5467 5464 5475 5501 5514 5512 5508 5507 5506 5503 5499 5497 5494 5490 5486 5483 5480 5477 5474 5471 5468 5464 5461 5457 5453 5449 5445 5440 5436 5432 5427 5423 5419 5415
5477 5471 5464 5466 5465 5464 5469 5472 5468 5469 5475 5481 5494 5491 5514 5512 5507 5505 5503 5500 5497 5495 5492 5489 5485 5481 5477 5473 5470 5467 5464 5460 5456 5452 5448 5444 5439 5435 5430 5425 5421 5417 5413 5409
5464 5460 5456 5459 5460 5460 5464 5470 5468 5471 5474 5475 5482 5493 5512 5506 5501 5500 5499 5497 5495 5495 5492 5488 5484 5480 5476 5472 5468 5464 5460 5456 5452 5448 5444 5439 5435 5430 5425 5420 5416 5412 5407 5402
5454 5451 5456 5460 5450 5465 5476 5486 5474 5473 5477 5481 5490 5511 5511 5505 5501 5498 5497 5495 5494 5494 5491 5487 5483 5479 5475 5471 5467 5462 5458 5453 5448 5444 5440 5435 5430 5425 5420 5416 5411 5406 5401 5396
5451 5444 5433 5434 5454 5486 5515 5500 5489 5486 5486 5485 5496 5503 5503 5503 5500 5496 5494 5493 5493 5493 5489 5486 5481 5477 5472 5467 5463 5459 5453 5448 5444 5439 5435 5430 5426 5421 5416 5411 5406 5401 5396 5391
5451 5444 5425 5427 5449 5467 5500 5495 5486 5485 5497 5497 5494 5499 5498 5494 5492 5497 5497 5494 5493 5491 5488 5484 5479 5475 5469 5464 5459 5454 5449 5444 5439 5435 5431 5426 5421 5416 5411 5406 5401 5396 5391 5386
5439 5437 5425 5421 5455 5479 5521 5501 5488 5492 5505 5511 5499 5499 5494 5489 5493 5503 5500 5493 5489 5485 5481 5478 5474 5469 5464 5460 5455 5449 5445 5440 5436 5433 5428 5423 5417 5412 5407 5402 5397 5391 5386 5382
5429 5422 5422 5422 5437 5467 5499 5486 5486 5501 5521 5517 5501 5499 5492 5490 5500 5498 5492 5487 5484 5480 5477 5473 5469 5464 5460 5455 5450 5445 5440 5437 5434 5429 5423 5418 5413 5408 5403 5397 5392 5386 5381 5375
5445 5431 5421 5415 5434 5481 5493 5480 5493 5514 5514 5508 5500 5496 5491 5489 5487 5486 5483 5480 5477 5473 5471 5467 5462 5458 5454 5450 5445 5441 5437 5434 5428 5423 5418 5413 5408 5403 5398 5392 5386 5380 5375 5369
5453 5465 5458 5462 5492 5503 5489 5495 5501 5500 5501 5501 5496 5493 5489 5484 5481 5479 5477 5473 5470 5467 5464 5460 5456 5452 5447 5443 5440 5437 5433 5427 5422 5417 5411 5407 5402 5397 5392 5387 5381 5374 5369 5364
5449 5452 5454 5454 5479 5488 5485 5487 5490 5490 5492 5493 5489 5486 5483 5480 5477 5473 5470 5467 5464 5461 5457 5453 5449 5445 5441 5437 5433 5430 5426 5421 5415 5410 5405 5401 5395 5390 5385 5381 5376 5370 5365 5360
5461 5443 5446 5453 5473 5478 5487 5486 5488 5487 5483 5481 5480 5478 5476 5474 5471 5468 5465 5462 5458 5455 5450 5445 5442 5439 5436 5431 5427 5423 5419 5414 5409 5404 5399 5394 5389 5384 5379 5374 5370 5366 5363 5358
5451 5451 5457 5480 5485 5483 5493 5488 5483 5479 5477 5475 5472 5471 5468 5466 5464 5461 5458 5455 5451 5447 5442 5438 5435 5432 5429 5424 5420 5415 5412 5408 5403 5397 5392 5387 5382 5377 5373 5368 5363 5360 5357 5353